Vancouver, WA

11:13 AM PDT on September 24, 2017 (GMT -0700)
Pearson

Weather History for KVUO - January, 2012

Change the Weather History Date:

Monday, January 30, 2012

  Actual Average Record
Temperature  
Mean Temperature 48 °F 42 °F  
Max Temperature 53 °F 49 °F 64 °F (1940)
Min Temperature 42 °F 36 °F 7 °F (1980)
Degree Days  
Heating Degree Days 17    
Month to date heating degree days 719  
Since 1 July heating degree days 2450  
Cooling Degree Days 0    
Month to date cooling degree days 0  
Year to date cooling degree days 0  
Moisture  
Dew Point 41 °F    
Average Humidity 76    
Maximum Humidity 89    
Minimum Humidity 63    
Precipitation  
Precipitation T in 0.15 in 1.47 in (1967)
Month to date precipitation 6.60 5.35  
Year to date precipitation 6.60 5.35  
Snow  
Snow 0.00 in - - ()
Month to date snowfall 0.0  
Snow Depth 0.00 in    
Sea Level Pressure  
Sea Level Pressure 30.09 in    
Wind  
Wind Speed 2 mph (SW)    
Max Wind Speed 12 mph    
Max Gust Speed 23 mph    
Visibility 10 miles    
Events      
T = Trace of Precipitation, MM = Missing Value Source: NWS Daily Summary

Daily Weather History Graph

Daily Weather History Graph

Search for Another Location

Airport or City:

Trip Planner

Search our weather history database for the weather conditions in past years. The results will help you decide how hot, cold, wet, or windy it might be!

Date:

Astronomy

Jan. 30, 2012 Rise Set
Actual Time 7:34 AM PST 5:13 PM PST
Civil Twilight 7:02 AM PST 5:45 PM PST
Nautical Twilight 6:27 AM PST 6:21 PM PST
Astronomical Twilight 5:52 AM PST 6:56 PM PST
Moon 10:34 AM PST (1/30) 12:28 AM PST (1/30)
Length of Visible Light 10h 42m
Length of Day
9h 38m
Waxing Crescent, 47% of the Moon is Illuminated
Jan 30
Waxing Crescent
Jan 30
First Quarter
Feb 7
Full
Feb 14
Last Quarter
Feb 21
New

Hourly Weather History & Observations

Time (PST) Temp. Windchill Dew Point Humidity Pressure Visibility Wind Dir Wind Speed Gust Speed Precip Events Conditions
12:53 AM 48.0 °F - 46.0 °F 93% 29.99 in 10.0 mi SSW 6.9 mph - 0.00 in   Overcast
1:53 AM 50.0 °F - 42.1 °F 74% 30.02 in 10.0 mi West 9.2 mph 23.0 mph N/A   Overcast
2:23 AM 48.2 °F - 42.8 °F 82% 30.04 in 10.0 mi Calm Calm - N/A   Mostly Cloudy
2:53 AM 48.0 °F - 43.0 °F 83% 30.06 in 10.0 mi Calm Calm - N/A   Overcast
3:01 AM 48.2 °F - 42.8 °F 82% 30.06 in 10.0 mi Calm Calm - N/A   Overcast
4:53 AM 46.9 °F - 42.1 °F 83% 30.09 in 10.0 mi SSW 5.8 mph - N/A   Overcast
5:46 AM 46.4 °F 45.2 °F 42.8 °F 87% 30.10 in 10.0 mi SSW 3.5 mph - N/A   Overcast
5:53 AM 46.9 °F - 42.1 °F 83% 30.11 in 10.0 mi Calm Calm - N/A   Overcast
6:53 AM 46.9 °F - 42.1 °F 83% 30.13 in 10.0 mi Calm Calm - N/A   Overcast
7:35 AM 44.6 °F - 41.0 °F 87% 30.13 in 10.0 mi Calm Calm - N/A   Mostly Cloudy
7:43 AM 42.8 °F - 39.2 °F 87% 30.13 in 10.0 mi Calm Calm - N/A   Mostly Cloudy
7:53 AM 43.0 °F - 39.9 °F 89% 30.14 in 10.0 mi Calm Calm - N/A   Mostly Cloudy
8:53 AM 46.9 °F - 42.1 °F 83% 30.14 in 10.0 mi Calm Calm - N/A   Overcast
9:53 AM 48.9 °F - 43.0 °F 80% 30.15 in 10.0 mi SW 6.9 mph - N/A   Overcast
12:53 PM 51.1 °F - 39.9 °F 66% 30.11 in 10.0 mi SSW 6.9 mph - N/A   Overcast
1:53 PM 51.1 °F - 39.0 °F 63% 30.11 in 10.0 mi WSW 5.8 mph - N/A   Mostly Cloudy
2:53 PM 52.0 °F - 39.9 °F 63% 30.10 in 10.0 mi Calm Calm - N/A   Mostly Cloudy
3:53 PM 52.0 °F - 39.9 °F 63% 30.10 in 10.0 mi Calm Calm - N/A   Overcast
5:53 PM 50.0 °F - 39.9 °F 68% 30.09 in 10.0 mi Calm Calm - N/A   Overcast
6:53 PM 48.0 °F - 39.9 °F 74% 30.10 in 10.0 mi Calm Calm - N/A   Overcast
7:53 PM 44.1 °F - 39.0 °F 82% 30.09 in 10.0 mi Calm Calm - N/A   Clear
8:53 PM 44.1 °F - 39.9 °F 85% 30.07 in 10.0 mi Calm Calm - N/A   Scattered Clouds
9:53 PM 43.0 °F - 39.0 °F 86% 30.06 in 10.0 mi Calm Calm - N/A   Mostly Cloudy
10:53 PM 44.1 °F - 39.9 °F 85% 30.06 in 10.0 mi Calm Calm - N/A   Overcast
11:53 PM 44.1 °F - 41.0 °F 89% 30.08 in 10.0 mi Calm Calm - N/A   Overcast